| time (UTC) | temp F | wind direction | speed MPH | gust MPH | rain 1hr in | rain 24hr in | rain mn in | humidity % | barometer mb |
| 20260506101523 | 45 | 195 | 0.0 | 2.0 | 0.01 | 0.59 | 0.08 | 95 | 1013.0 |
| 20260506100021 | 45 | 217 | 0.0 | 1.0 | 0.02 | 0.59 | 0.08 | 95 | 1013.1 |
| 20260506094521 | 45 | 257 | 1.0 | 3.0 | 0.02 | 0.59 | 0.08 | 95 | 1013.4 |
| 20260506093025 | 45 | 282 | 2.0 | 5.0 | 0.02 | 0.59 | 0.08 | 95 | 1013.6 |
| 20260506091521 | 45 | 292 | 1.0 | 5.0 | 0.01 | 0.57 | 0.07 | 95 | 1013.6 |
| 20260506090022 | 45 | 228 | 1.0 | 3.0 | 0.00 | 0.56 | 0.06 | 95 | 1013.6 |
| 20260506084531 | 45 | 286 | 1.0 | 3.0 | 0.00 | 0.56 | 0.06 | 95 | 1013.5 |
| 20260506083017 | 45 | 251 | 1.0 | 2.0 | 0.00 | 0.56 | 0.06 | 95 | 1013.2 |
| 20260506081517 | 45 | 276 | 1.0 | 3.0 | 0.00 | 0.56 | 0.06 | 94 | 1013.5 |
| 20260506073013 | 45 | 295 | 1.0 | 2.0 | 0.01 | 0.56 | 0.06 | 95 | 1013.1 |
| 20260506071512 | 45 | 315 | 0.0 | 1.0 | 0.02 | 0.56 | 0.06 | 95 | 1013.2 |
| 20260506061507 | 45 | 229 | 0.0 | 1.0 | 0.04 | 0.55 | 0.04 | 95 | 1013.2 |
| 20260506044601 | 44 | 328 | 0.0 | 2.0 | 0.01 | 0.51 | 0.51 | 95 | 1012.6 |
| 20260506043102 | 44 | 354 | 0.0 | 2.0 | 0.01 | 0.51 | 0.51 | 95 | 1012.6 |
| 20260506041557 | 44 | 340 | 0.0 | 2.0 | 0.00 | 0.50 | 0.50 | 95 | 1012.6 |
| 20260506040056 | 45 | 316 | 0.0 | 1.0 | 0.00 | 0.50 | 0.50 | 95 | 1012.7 |
| 20260506034558 | 45 | 331 | 0.0 | 4.0 | 0.00 | 0.50 | 0.50 | 95 | 1012.7 |
| 20260506033109 | 45 | 307 | 1.0 | 3.0 | 0.00 | 0.50 | 0.50 | 95 | 1013.1 |
| 20260506031553 | 44 | 285 | 2.0 | 4.0 | 0.00 | 0.50 | 0.50 | 95 | 1013.1 |
| 20260506030059 | 44 | 326 | 1.0 | 3.0 | 0.00 | 0.50 | 0.50 | 95 | 1012.4 |
| 20260506024651 | 44 | 329 | 0.0 | 2.0 | 0.01 | 0.50 | 0.50 | 95 | 1011.8 |
| 20260506023048 | 44 | 330 | 0.0 | 1.0 | 0.01 | 0.50 | 0.50 | 95 | 1011.9 |
| 20260506021556 | 44 | 342 | 0.0 | 2.0 | 0.01 | 0.50 | 0.50 | 95 | 1011.8 |
| 20260506020048 | 44 | 327 | 1.0 | 3.0 | 0.02 | 0.49 | 0.49 | 94 | 1011.9 |
| 20260506014547 | 44 | 322 | 1.0 | 3.0 | 0.03 | 0.49 | 0.49 | 94 | 1012.1 |
| 20260506013048 | 44 | 283 | 0.0 | 4.0 | 0.04 | 0.49 | 0.49 | 95 | 1012.2 |
| 20260506011608 | 44 | 335 | 0.0 | 1.0 | 0.04 | 0.49 | 0.49 | 94 | 1011.1 |
| 20260506010042 | 44 | 297 | 1.0 | 4.0 | 0.03 | 0.47 | 0.47 | 94 | 1011.7 |
| 20260506004546 | 44 | 342 | 0.0 | 2.0 | 0.05 | 0.46 | 0.46 | 94 | 1011.2 |
| 20260506003043 | 44 | 319 | 0.0 | 1.0 | 0.05 | 0.45 | 0.45 | 94 | 1011.0 |
| 20260506001543 | 44 | 323 | 2.0 | 5.0 | 0.08 | 0.45 | 0.45 | 94 | 1010.9 |
| 20260506000046 | 44 | 356 | 0.0 | 5.0 | 0.11 | 0.44 | 0.44 | 94 | 1010.9 |
| 20260505234538 | 44 | 35 | 1.0 | 7.0 | 0.08 | 0.41 | 0.41 | 93 | 1010.7 |
| 20260505233036 | 45 | 11 | 3.0 | 7.0 | 0.07 | 0.40 | 0.40 | 93 | 1010.7 |
| 20260505231539 | 45 | 338 | 2.0 | 8.0 | 0.05 | 0.37 | 0.37 | 93 | 1010.3 |
| 20260505230034 | 45 | 315 | 0.0 | 5.0 | 0.01 | 0.33 | 0.33 | 93 | 1010.3 |
| 20260505224532 | 45 | 34 | 1.0 | 6.0 | 0.01 | 0.33 | 0.33 | 93 | 1010.2 |
| 20260505223034 | 46 | 355 | 0.0 | 6.0 | 0.01 | 0.33 | 0.33 | 92 | 1009.7 |
| 20260505221531 | 46 | 41 | 2.0 | 6.0 | 0.00 | 0.32 | 0.32 | 92 | 1009.7 |
| 20260505220046 | 46 | 316 | 0.0 | 6.0 | 0.00 | 0.32 | 0.32 | 92 | 1009.6 |
| 20260505214533 | 46 | 7 | 1.0 | 7.0 | 0.01 | 0.32 | 0.32 | 92 | 1009.7 |
| 20260505213032 | 46 | 10 | 1.0 | 5.0 | 0.01 | 0.32 | 0.32 | 91 | 1010.2 |
| 20260505211534 | 46 | 302 | 2.0 | 5.0 | 0.01 | 0.32 | 0.32 | 92 | 1009.9 |
| 20260505210026 | 45 | 355 | 0.0 | 6.0 | 0.01 | 0.32 | 0.32 | 93 | 1010.2 |
| 20260505204526 | 45 | 338 | 2.0 | 6.0 | 0.03 | 0.31 | 0.31 | 93 | 1010.3 |
| 20260505203024 | 45 | 339 | 2.0 | 5.0 | 0.05 | 0.31 | 0.31 | 92 | 1010.3 |
| 20260505201523 | 45 | 49 | 0.0 | 9.0 | 0.05 | 0.31 | 0.31 | 92 | 1010.1 |
| 20260505200024 | 45 | 25 | 1.0 | 10.0 | 0.05 | 0.31 | 0.31 | 91 | 1010.2 |
| 20260505194523 | 45 | 46 | 3.0 | 10.0 | 0.02 | 0.28 | 0.28 | 89 | 1010.6 |
| 20260505193031 | 46 | 335 | 1.0 | 4.0 | 0.00 | 0.26 | 0.26 | 90 | 1010.9 |
| 20260505191522 | 46 | 4 | 4.0 | 9.0 | 0.02 | 0.26 | 0.26 | 89 | 1011.3 |
| 20260505190015 | 46 | 22 | 3.0 | 12.0 | 0.04 | 0.26 | 0.26 | 88 | 1010.7 |
| 20260505184514 | 47 | 30 | 4.0 | 14.0 | 0.06 | 0.26 | 0.26 | 87 | 1010.3 |
| 20260505183016 | 47 | 328 | 2.0 | 7.0 | 0.06 | 0.26 | 0.26 | 88 | 1010.1 |
| 20260505181508 | 47 | 326 | 2.0 | 9.0 | 0.04 | 0.24 | 0.24 | 85 | 1010.5 |
| 20260505180005 | 49 | 30 | 3.0 | 13.0 | 0.02 | 0.22 | 0.22 | 80 | 1010.5 |
| 20260505174503 | 50 | 327 | 3.0 | 8.0 | 0.00 | 0.20 | 0.20 | 77 | 1010.7 |
| 20260505173002 | 51 | 319 | 3.0 | 8.0 | 0.00 | 0.20 | 0.20 | 77 | 1011.1 |
| 20260505171601 | 51 | 311 | 2.0 | 6.0 | 0.00 | 0.20 | 0.20 | 79 | 1011.1 |
| 20260505170100 | 51 | 358 | 0.0 | 3.0 | 0.00 | 0.20 | 0.20 | 79 | 1010.8 |
| 20260505164603 | 51 | 20 | 0.0 | 4.0 | 0.00 | 0.22 | 0.20 | 79 | 1010.6 |
| 20260505163057 | 52 | 340 | 2.0 | 5.0 | 0.00 | 0.22 | 0.20 | 77 | 1010.2 |
| 20260505161558 | 53 | 359 | 0.0 | 5.0 | 0.00 | 0.22 | 0.20 | 73 | 1009.8 |
| 20260505153108 | 55 | 333 | 3.0 | 8.0 | 0.00 | 0.30 | 0.20 | 65 | 1009.4 |
| 20260505151553 | 55 | 25 | 2.0 | 7.0 | 0.00 | 0.30 | 0.20 | 69 | 1009.6 |
| 20260505124550 | 49 | 81 | 2.0 | 9.0 | 0.10 | 0.30 | 0.20 | 91 | 1008.1 |
| 20260505123046 | 49 | 69 | 0.0 | 10.0 | 0.12 | 0.28 | 0.19 | 91 | 1008.6 |
| 20260505121540 | 49 | 27 | 1.0 | 6.0 | 0.10 | 0.25 | 0.15 | 91 | 1009.6 |
| 20260505120048 | 50 | 328 | 3.0 | 8.0 | 0.12 | 0.22 | 0.12 | 91 | 1009.7 |
| 20260505114533 | 50 | 342 | 3.0 | 8.0 | 0.09 | 0.19 | 0.09 | 89 | 1008.6 |
| 20260505113023 | 50 | 5 | 4.0 | 11.0 | 0.07 | 0.17 | 0.07 | 89 | 1009.2 |
| 20260505111520 | 51 | 11 | 1.0 | 6.0 | 0.05 | 0.15 | 0.05 | 84 | 1008.5 |